Reflectivity
-20 -20 -20 -20 -20 -20 -20 -20 -20 -10 -13 -15 -20 -15 -7 23 11 -4 13 12 0 3 21 13 23 30 29 -14 -20 -1 -12 -20 9 -9 -20 -20 -20 -20 -20 -20 -20 -20 -1
-20 -20 -20 -20 -20 -20 -20 -3 -16 7 5 -18 -12 -20 -20 4 1 -9 -19 -17 -20 9 9 16 14 -3 28 30 21 28 13 20 27 27 17 -20 -20 -10 -20 -20 -11 -20 12
-20 -20 -20 -20 -20 -20 -20 -14 5 15 7 -2 1 7 -5 -20 -12 15 3 -17 -2 -9 -3 12 7 23 27 37 30 33 33 35 31 31 29 31 26 20 3 -1 -18 -20 6
-20 -20 -20 -20 -20 -20 -20 -20 -5 1 1 4 -0 -20 -20 -20 -20 -20 -18 4 12 14 1 3 -1 -1 18 21 33 35 34 26 33 24 3 7 5 15 29 29 -1 12 -18
-20 -20 -20 -20 -20 -20 -20 -20 -20 -20 -9 -4 -7 -20 -20 -20 -20 -20 -20 -16 6 -2 -9 -20 -14 6 -7 1 15 23 13 21 16 12 11 9 10 8 5 5 18 19 11
-20 -20 -20 -20 -20 -20 -20 -20 -20 -20 -20 -18 -20 -20 -20 -20 -20 -20 -20 -20 -20 -20 -20 -20 -1 -10 -8 2 -1 15 16 12 15 12 13 8 4 11 13 12 9 7 14
-20 -20 -20 -20 -20 -20 -20 -20 -20 -20 -20 -20 -20 -20 -20 -20 -20 -20 -20 -20 -20 -20 -20 -20 -20 -20 -20 -20 11 -9 8 18 16 12 6 14 9 10 13 13 19 8 2
-20 -20 -20 -20 -20 -20 -20 -20 -20 -20 -20 -20 -20 -20 -20 -20 -20 -20 -20 -20 -20 -20 -20 -20 -20 -20 -20 -20 -20 3 -19 10 7 12 -6 -13 9 16 13 -0 8 0 -11
7 -20 -20 -20 -20 -20 -20 -20 -19 -20 -20 -20 -20 -20 -20 -20 -20 -20 -20 -20 -20 -20 -20 -20 -20 -20 -20 -20 -20 -19 -20 -20 15 14 -1 -20 -8 -4 -9 3 -3 -2 -7
-19 -20 -20 -20 -20 -20 -20 -20 -20 -20 -20 -20 -20 -20 -20 -20 -20 -20 -20 -20 -20 -20 -20 -20 -20 -20 -20 -20 -20 -20 -20 -20 11 -14 -20 -19 0 6 -19 -15 -18 -16 -20
-15 11 -16 -20 -20 -20 -20 -20 -20 -20 -20 -20 -20 -20 -20 -20 -20 -20 -20 -20 -20 -20 -20 -20 -20 -20 -20 -20 -20 -20 -20 -20 -17 3 -15 5 -20 -20 -20 -20 -20 -20 -20
18 -8 -0 -17 -20 -20 -20 -20 -20 -20 -20 -20 -20 -20 -19 -11 -4 -11 -13 -14 -20 -20 -20 -20 -20 -20 -20 -20 -20 -20 -20 -20 -20 -20 -20 -20 -20 -20 -20 -20 -20 -20 -20
19 17 17 -10 -20 -20 -20 -20 -20 -20 -20 -20 7 -1 6 12 3 1 -11 -20 -20 -20 -20 -20 -20 -20 -20 -20 -20 -20 -20 -20 -20 -20 -20 -20 -20 -20 -20 -20 -20 -20 -20
19 -4 5 -15 -20 -20 -20 -20 -20 -20 -20 -20 -20 -20 -20 -19 -12 -8 -17 -20 -20 -20 -20 -20 -20 -20 -20 -20 -20 -20 -20 -20 -20 -20 -20 -20 -20 -20 -20 -20 -20 -20 -20
-5 10 19 5 -13 -14 -16 -20 -20 -20 -20 -20 -20 -20 -20 -20 -20 -20 -20 -20 -20 -20 -20 -20 -20 -20 -20 -20 -20 -20 -20 -20 -20 -20 -20 -20 -20 -20 -20 -20 -20 -20 -20
20 19 24 22 1 -20 -20 -20 -20 -20 -20 -20 -20 -20 -20 -20 -20 -20 -20 -20 -20 -20 -20 -20 -20 -20 -20 -20 -20 -20 -20 -20 -20 -20 -20 -20 -20 -20 -20 -20 -20 -20 -20
17 24 6 -18 -20 -20 -20 -20 -20 -20 -20 -20 -20 -20 -20 -20 -20 -20 -20 -20 -20 -20 -20 -20 -20 -20 -20 -20 -20 -20 -20 -20 -20 -20 -20 -20 -20 -20 -20 -20 -20 -20 -20
3 -3 -19 -20 -20 -20 -20 -20 -20 -20 -20 -20 -20 -20 -20 -20 -20 -20 -20 -20 -20 -20 -20 -20 -20 -20 -20 -20 -20 -20 -20 -20 -20 -20 -20 -20 -20 -20 -20 -20 -20 -20 -20
-16 -11 -20 -20 -20 -20 -20 -20 -20 -20 -20 -20 -20 -20 -20 -20 -20 -20 -20 -20 -20 -20 -20 -20 -20 -20 -20 -20 -20 -20 -20 -20 -20 -20 -20 -20 -20 -20 -20 -20 -20 -20 -20
-0 -20 -20 -20 -20 -20 -20 -20 -20 -20 -20 -20 -20 -20 -20 -20 -20 -20 -20 -20 -20 -20 -20 -20 -20 -20 -20 -20 -20 -20 -20 -20 -20 -20 -20 -20 -20 -20 -20 -20 -20 -20 -20
-20 -20 -20 -20 -20 -20 -20 -20 -20 -20 -20 -20 -20 -20 -20 -20 -20 -20 -20 -20 -20 -20 -20 -20 -20 -20 -20 -20 -20 -20 -20 -20 -20 -20 -20 -20 -20 -20 -20 -20 -20 -20 -20
-20 -20 -20 -20 -20 -20 -20 -20 -20 -20 -20 -20 -20 -20 -20 -20 -20 -20 -20 -20 -20 -20 -20 -20 -20 -20 -20 -20 -20 -20 -20 -20 -20 -20 -20 -20 -20 -20 -20 -20 -20 -20 -20
-20 -20 -20 -20 -20 -20 -20 -20 -20 -20 -20 -20 -20 -20 -20 -20 -20 -20 -20 -20 -20 -20 -20 -20 -20 -20 -20 -20 -20 -20 -20 -20 -20 -20 -20 -20 -20 -20 -20 -20 -20 -20 -20
-20 -20 -20 -20 -20 -20 -20 -20 -20 -20 -20 -20 -20 -20 -20 -20 -20 -20 -20 -20 -20 -20 -20 -20 -20 -20 -20 -20 -20 -20 -20 -20 -20 -20 -20 -20 -20 -20 -20 -20 -20 -20 -20
-20 -20 -20 -20 -20 -20 -20 -20 -20 -20 -20 -20 -20 -20 -20 -20 -20 -20 -20 -20 -20 -20 -20 -20 -20 -20 -20 -20 -20 -20 -20 -20 -20 -20 -20 -20 -20 -20 -20 -20 -20 -20 -20
-20 -20 -20 -20 -20 -20 -20 -12 -20 -20 -20 -20 -20 -20 -20 -20 -20 -20 -20 -20 -20 -20 -20 -20 -20 -20 -20 -20 -20 -20 -20 -20 -20 -20 -20 -20 -20 -19 -0 -20 -20 -20 -20
Wind_Speed
7 6 5 5 5 8 7 7 7 8 10 10 9 10 10 10 10 6 6 26 29 28 25 24 11 7 10 12 11 12 13 11 11 11 11 10 10 10 9 9 9 9 8
5 6 6 5 5 8 7 7 7 7 8 7 10 10 10 9 9 10 7 9 25 28 29 27 28 15 11 12 16 16 16 14 12 12 12 11 9 9 9 8 8 7 6
8 7 6 6 5 9 11 8 8 7 7 7 10 8 7 8 8 9 8 7 8 21 28 28 29 27 24 14 21 22 22 18 15 13 12 12 11 11 9 9 9 9 8
9 6 7 7 6 6 8 7 6 7 7 6 6 6 5 6 7 9 8 7 7 7 14 26 28 29 27 27 25 25 25 25 24 23 23 23 23 23 18 13 13 12 14
9 7 6 5 7 6 6 8 5 5 7 7 7 6 5 5 6 7 8 9 9 8 6 16 23 26 26 26 25 24 25 24 23 23 23 24 24 23 23 26 25 24 23
9 9 6 6 6 7 6 7 8 5 5 6 8 7 5 4 5 5 6 6 7 8 7 9 8 11 24 25 24 21 20 22 22 22 23 23 23 22 22 23 23 23 23
7 7 7 7 6 8 6 6 6 9 5 4 4 4 5 7 7 5 5 5 6 6 8 7 7 5 8 21 23 20 20 20 21 22 23 21 22 21 21 21 21 22 21
7 6 6 6 6 9 9 6 4 4 3 4 2 3 3 3 5 6 5 5 7 5 7 8 8 10 8 7 14 21 16 15 17 18 20 20 18 18 18 19 18 18 18
6 7 8 6 5 5 7 6 6 6 4 2 5 2 3 3 3 3 6 5 6 5 5 6 7 7 8 7 10 12 17 12 17 16 17 18 16 15 15 15 15 15 14
7 7 9 7 6 4 6 6 5 5 5 4 2 3 3 3 3 2 3 4 5 6 6 5 5 8 8 7 13 17 16 13 15 14 15 16 14 12 13 12 12 12 13
7 9 7 8 7 5 6 5 7 6 4 4 3 1 3 3 2 4 3 1 4 4 4 4 5 5 7 6 6 11 17 14 12 11 11 12 13 13 12 10 12 12 13
6 8 7 7 7 6 6 5 5 6 7 5 4 3 2 3 1 3 4 3 4 2 3 4 4 4 4 5 8 13 14 14 13 10 10 12 11 11 11 11 11 11 11
5 7 6 7 6 6 6 6 6 6 5 5 6 4 3 3 0 2 4 3 3 1 2 3 3 4 5 4 4 7 12 12 11 10 10 10 10 10 10 10 10 9 9
6 7 7 8 8 8 6 6 5 5 5 5 7 6 4 3 4 3 2 5 3 2 2 3 3 3 4 3 6 10 6 10 10 9 9 9 9 10 9 9 9 8 8
7 9 8 9 8 8 7 6 5 6 6 6 6 6 5 4 4 4 4 3 4 4 2 2 2 1 2 3 4 4 4 6 8 8 8 8 8 8 8 8 8 7 6
9 10 9 9 8 8 7 6 5 6 7 5 5 7 6 4 4 4 4 3 3 3 4 1 1 2 2 2 2 3 3 6 5 7 7 7 7 8 8 7 7 6 5
8 9 9 8 8 8 7 7 7 7 8 7 7 6 7 6 4 4 4 4 4 3 4 2 2 2 2 3 4 4 2 2 2 5 7 8 7 7 7 6 6 6 6
8 8 8 8 7 7 7 7 7 7 7 7 7 7 6 5 6 5 4 5 5 4 4 3 1 1 2 2 1 2 3 3 2 3 6 7 7 8 7 7 6 7 7
8 8 8 9 8 7 7 7 7 7 7 7 6 6 6 6 5 4 5 5 4 4 4 4 2 1 1 2 2 3 2 2 3 3 5 7 6 6 6 8 8 7 8
8 8 8 9 7 7 7 6 7 7 7 7 6 6 6 6 6 5 5 4 4 4 3 3 2 1 1 1 1 0 3 2 3 3 4 5 4 6 8 9 7 8 8
7 8 9 8 8 7 5 6 7 7 7 6 6 6 6 7 9 7 4 4 4 3 3 2 1 1 1 1 0 1 1 2 3 2 1 3 2 3 4 8 7 7 7
8 7 7 7 7 5 15 14 9 6 6 5 5 5 5 7 6 7 6 5 4 2 2 2 1 2 2 2 2 1 1 2 2 2 1 3 2 3 4 4 11 5 8
7 7 6 6 6 5 14 14 14 5 5 5 5 5 3 4 4 4 3 3 2 1 1 3 2 1 1 2 3 3 2 2 2 4 3 4 1 4 4 6 13 10 12
7 6 5 5 5 4 13 13 13 6 5 5 5 4 3 4 3 4 2 2 2 3 3 2 2 4 4 5 4 3 3 3 4 4 3 5 3 4 4 4 13 13 12
6 4 4 5 5 0 14 13 9 4 5 5 4 3 3 2 3 3 2 1 3 4 5 9 9 10 10 12 10 1 3 2 6 5 3 3 4 3 3 4 5 13 16
6 5 5 4 6 3 12 12 8 3 3 3 3 3 5 4 5 5 4 3 3 5 4 5 5 5 7 6 12 5 3 4 4 5 4 2 2 2 3 3 2 1 2
Wind_Direction
101 99 90 83 83 96 93 87 83 78 73 71 70 68 60 50 46 40 38 38 38 38 49 53 53 95 109 103 95 90 93 92 91 91 82 79 77 74 70 93 89 83 66
90 95 94 85 70 102 95 89 88 88 85 83 75 67 68 64 55 55 48 35 40 40 43 46 50 56 79 95 88 77 76 74 73 68 67 66 59 59 62 67 68 75 63
98 103 102 86 72 94 97 90 86 82 78 71 73 66 61 62 66 60 57 48 33 36 42 42 47 51 55 98 91 83 84 81 74 79 79 73 62 50 60 56 57 58 52
88 80 103 107 94 83 110 99 99 90 80 72 71 58 53 61 65 67 62 57 52 33 36 42 44 44 48 61 68 74 73 73 72 71 69 68 65 61 61 62 64 70 66
100 96 84 90 98 87 82 108 91 91 95 88 79 70 52 40 39 67 59 53 51 44 42 40 45 44 44 47 58 67 73 73 76 73 72 69 66 66 65 64 63 64 64
100 102 100 87 84 96 83 89 99 83 94 95 83 71 61 55 50 52 56 52 48 35 37 40 38 40 46 45 43 53 74 77 75 74 72 68 67 65 63 62 64 61 57
83 97 116 106 98 100 96 100 100 91 54 59 90 55 48 51 43 41 55 55 49 39 41 31 37 34 38 45 38 35 50 75 72 69 66 61 64 63 63 62 60 58 54
82 107 102 89 116 117 113 109 83 101 80 22 122 119 108 17 40 35 33 54 52 45 45 40 37 47 39 33 30 34 37 61 71 70 66 57 50 51 56 59 54 54 50
80 91 96 94 85 112 122 119 120 118 126 47 62 120 125 146 127 14 34 42 57 51 44 44 37 50 57 43 28 21 28 44 66 65 60 52 40 44 45 42 46 47 44
68 82 86 89 83 69 98 121 108 104 108 122 104 37 74 114 130 106 27 33 44 46 42 41 44 47 46 47 34 34 31 44 61 57 53 51 35 36 40 44 46 40 38
53 66 84 98 81 81 69 82 106 105 103 117 111 133 60 39 63 135 147 89 36 41 42 46 51 60 56 47 33 40 38 38 54 61 56 45 39 34 39 43 42 39 39
80 76 74 79 96 89 86 74 67 94 104 100 108 75 100 103 61 94 110 126 136 37 61 50 52 62 70 53 53 47 47 41 33 43 49 47 40 38 35 37 40 38 35
84 81 98 94 94 102 98 90 74 79 90 108 101 82 70 55 314 61 112 126 124 149 66 33 43 47 80 71 37 71 49 45 41 39 37 41 36 34 32 30 33 32 28
116 105 97 101 99 96 88 97 103 91 78 76 95 88 76 51 40 61 128 125 97 95 89 158 19 57 62 73 37 52 42 38 36 31 25 25 24 23 22 19 18 20 21
109 102 101 100 97 95 100 99 92 93 88 79 78 85 77 60 46 43 53 74 141 137 136 227 116 48 77 87 43 42 55 28 33 29 24 19 16 11 9 6 4 3 18
113 108 104 101 101 100 94 91 91 89 92 86 80 83 72 60 56 48 53 59 58 123 119 152 67 141 40 97 74 43 31 22 36 28 23 17 12 10 6 359 5 16 19
121 120 116 111 110 107 101 96 90 90 88 84 77 77 75 70 57 49 46 46 45 57 110 31 100 94 64 36 15 9 9 0 13 25 9 359 355 353 351 5 12 7 358
118 115 113 104 96 91 95 100 103 96 96 92 93 85 82 79 69 66 61 54 48 30 103 121 126 70 87 76 2 348 342 352 356 331 343 336 336 339 339 347 350 341 358
109 105 102 103 103 103 98 93 101 106 103 104 107 103 105 95 81 77 76 68 52 43 49 110 109 61 80 63 4 341 291 311 304 296 336 340 338 334 336 330 328 328 330
109 106 103 106 102 100 99 98 95 94 94 91 91 87 85 93 97 89 79 77 74 69 50 75 84 94 112 220 109 262 351 353 319 325 335 326 297 306 306 307 302 305 304
102 109 113 106 105 106 109 108 107 104 101 96 91 88 82 86 88 77 90 56 56 64 62 61 54 78 329 6 94 279 1 318 310 281 1 332 346 325 305 314 305 292 291
101 99 99 108 111 116 133 127 113 105 103 108 106 98 98 91 87 89 87 89 102 98 55 61 6 17 345 9 1 351 309 349 326 323 19 290 332 314 296 281 286 259 296
108 102 100 105 110 118 134 132 126 112 117 117 118 124 147 117 106 111 90 69 20 332 192 169 184 239 297 306 343 329 324 307 271 296 0 299 283 293 292 297 293 288 287
113 115 109 105 113 145 140 136 129 121 122 123 126 128 125 141 150 104 60 25 3 342 308 282 219 256 253 266 259 234 246 270 280 283 269 275 258 251 276 294 296 295 297
112 103 114 110 109 149 153 152 123 123 129 126 121 117 141 145 210 182 140 258 278 285 287 286 269 264 273 279 278 220 269 271 284 276 262 255 268 262 248 269 285 292 290
119 121 118 120 148 100 148 150 140 120 125 155 169 199 213 186 238 226 192 202 247 260 269 290 300 302 304 301 287 258 197 231 265 291 256 262 295 302 312 272 268 259 300